SCP
0 0 0 -0 -0 -0 0 -0 0 0 0 0 -0 0 0 0 0 0 0 0 0 0 0 0 0 0 0 0 1 0 0 0 0 0 0 0 0 0 0 0 0 -0 0 -0 0 0 1 0 0 0 0 0 0 0
0 0 -0 -0 -0 0 -0 0 0 0 -0 -0 -0 0 0 0 0 0 0 0 0 0 -0 0 0 0 0 0 0 0 0 0 0 0 0 0 0 0 0 0 0 0 1 1 1 0 0 0 0 0 0 0 0 0
-0 -0 -0 -0 -0 0 0 0 -0 -0 -0 -0 -0 0 0 0 0 0 0 0 0 0 0 0 0 0 0 -0 0 0 0 2 1 2 0 0 0 0 0 0 0 0 0 1 0 0 0 0 0 0 0 0 0 0
-0 -0 -0 -0 -0 0 0 0 0 -0 -0 -0 0 0 0 0 0 0 0 0 0 0 0 0 0 0 0 0 0 0 1 1 2 1 0 0 0 0 0 0 0 0 0 0 0 0 0 0 0 0 0 0 -0 -0
0 -0 -0 -0 -0 -0 0 0 0 0 0 -0 0 0 0 0 0 0 0 0 0 0 0 0 0 0 0 0 0 0 1 1 0 0 0 0 0 0 0 0 0 0 0 1 0 0 0 0 0 -0 -0 0 0 0
0 -0 -0 -0 -0 -0 0 0 0 0 0 0 0 0 0 0 0 0 0 0 0 0 0 0 0 -0 0 0 0 0 0 0 0 0 0 0 0 0 0 0 0 0 0 0 0 0 0 0 0 0 0 0 0 0
0 0 -0 0 0 0 0 0 0 0 0 0 0 0 0 0 0 0 0 0 0 0 0 0 0 -0 -0 0 0 0 0 0 0 0 0 0 0 0 0 0 0 0 0 0 -0 -0 0 0 0 0 0 0 0 0
0 0 0 0 0 0 0 0 0 0 0 0 0 0 0 0 0 0 0 0 0 0 0 0 0 0 0 0 0 0 0 0 0 0 0 0 0 0 0 0 0 0 0 -0 -0 0 0 0 0 0 0 0 0 0
0 0 0 0 0 0 0 0 0 0 0 0 0 0 0 0 0 0 0 0 0 0 0 0 0 0 0 0 0 0 0 0 0 0 0 0 0 0 0 0 0 -0 -0 0 -0 -0 0 0 0 0 0 0 0 0
0 0 0 0 0 0 0 0 0 0 0 0 0 0 0 0 0 0 0 0 0 0 0 0 0 0 0 0 0 0 0 0 0 0 0 0 0 0 0 0 0 -0 0 0 -0 0 0 0 0 0 0 0 0 0
0 0 0 0 0 0 0 0 0 0 0 0 0 0 0 0 0 0 0 0 0 0 0 0 0 0 0 0 0 0 0 0 0 0 0 0 0 0 0 0 0 -0 -0 0 0 -0 0 0 0 0 0 0 0 0
0 0 0 0 0 0 0 0 0 0 0 0 0 0 0 0 0 0 0 0 0 0 0 0 0 0 0 0 0 0 0 0 0 0 0 0 0 0 0 0 0 -0 -0 -0 0 0 0 0 0 0 0 0 0 0
0 0 0 0 0 0 0 0 0 0 0 0 0 0 0 0 0 0 0 0 0 0 0 0 0 0 0 0 0 0 0 0 0 0 0 0 0 0 0 0 0 0 -0 0 0 0 0 0 0 0 0 0 0 0
0 0 0 0 0 0 0 0 0 0 0 0 0 0 0 0 0 0 0 0 0 0 0 0 0 0 0 0 0 0 0 0 0 0 0 0 0 0 0 0 0 0 0 0 0 0 0 0 0 0 0 0 0 0
-0 0 0 0 0 0 0 0 0 0 0 0 0 0 0 0 0 0 -0 0 0 0 0 0 0 0 0 0 0 0 0 0 0 0 0 0 0 0 0 0 0 0 0 0 0 0 0 0 0 0 0 0 0 0
0 0 0 0 0 0 0 0 0 0 0 0 0 0 0 0 0 0 0 0 0 0 -0 -0 0 0 0 0 0 0 0 0 0 0 1 0 0 0 0 0 0 0 0 0 0 0 0 0 0 0 0 0 0 0
0 0 0 0 0 0 0 0 0 0 0 0 0 0 0 0 0 0 0 0 0 -0 0 0 0 0 0 0 0 0 0 0 0 0 0 0 0 0 0 0 0 0 0 0 0 0 0 0 0 0 0 0 0 0
0 0 0 0 0 0 0 0 0 0 0 0 0 0 0 0 0 0 0 0 0 0 0 0 0 0 0 0 0 0 0 0 0 0 0 0 0 0 0 0 0 0 0 0 0 0 0 0 0 0 0 0 0 0
0 0 0 0 0 0 0 -0 0 0 0 0 0 0 0 0 0 0 0 0 0 0 0 0 0 0 -0 0 0 0 0 0 0 0 0 0 0 0 0 0 0 0 0 0 0 0 0 0 0 0 0 0 0 0
0 0 0 0 0 -0 0 0 0 0 0 0 0 0 0 0 0 0 0 0 0 0 0 0 0 0 0 0 0 0 0 0 0 0 0 0 0 0 0 0 0 0 0 0 0 0 0 0 0 0 0 0 0 0
0 0 0 0 0 0 0 0 0 0 0 0 0 0 0 0 0 0 0 0 0 0 0 0 0 0 0 0 0 0 -0 0 0 0 0 0 0 0 0 0 0 0 0 0 0 0 0 0 0 0 0 0 0 0
0 0 0 0 0 0 0 0 0 0 0 0 0 0 0 0 0 0 0 0 0 0 0 0 0 0 0 0 0 0 0 0 0 0 0 0 0 0 0 0 0 0 0 0 0 0 0 0 0 0 0 0 0 0
0 0 0 0 0 0 0 0 0 0 0 0 0 0 0 0 0 0 0 0 0 0 0 0 0 0 0 0 0 0 0 0 0 0 -0 0 0 0 0 -0 0 0 0 0 0 0 0 0 0 0 0 0 0 0
0 0 0 0 0 0 0 0 0 0 0 0 0 0 0 0 0 0 0 0 0 0 0 0 0 0 0 0 0 0 0 0 0 0 0 0 0 0 0 0 0 0 0 0 0 0 0 0 0 0 0 0 0 0
0 0 0 0 0 0 0 0 0 0 0 0 0 0 0 0 0 0 0 0 0 0 0 0 0 0 0 0 0 0 0 0 0 0 0 0 0 -0 0 0 0 0 0 0 0 0 0 0 0 0 0 0 0 0
0 0 0 0 0 0 0 0 0 0 0 0 0 0 0 0 0 0 0 0 0 -0 0 0 0 0 0 0 0 0 0 0 0 0 0 0 0 0 0 0 0 0 0 0 0 0 0 0 0 0 0 0 0 0
0 0 0 0 0 0 0 0 0 0 0 0 0 0 0 0 0 0 0 0 0 0 0 0 0 0 0 0 0 0 0 0 0 0 0 0 0 0 0 0 0 0 0 0 0 0 0 0 0 0 0 0 0 0
0 0 0 0 0 0 0 0 0 0 0 0 0 0 0 0 0 0 0 0 0 0 0 0 0 0 0 0 0 0 0 0 0 0 0 0 0 0 0 0 0 0 0 0 0 0 0 0 0 0 0 0 0 0
0 0 0 0 0 0 0 0 0 0 0 0 0 0 0 0 0 0 0 0 0 0 0 0 0 0 0 0 0 0 0 0 0 0 0 0 0 0 0 0 0 0 0 0 0 0 0 0 0 0 0 0 0 0
0 0 0 0 0 0 0 0 0 0 0 0 0 0 0 0 0 -0 0 0 -0 0 0 0 0 0 0 0 0 0 0 0 0 0 0 0 0 0 0 0 0 0 0 0 0 0 0 0 0 0 0 0 0 0
0 0 0 0 0 0 0 0 0 0 0 0 0 0 0 0 0 -0 -0 0 0 0 0 0 0 0 0 0 0 0 0 0 0 0 0 0 0 0 0 0 0 0 0 0 0 0 0 0 0 0 0 0 0 0
0 0 0 0 0 0 0 -0 0 0 0 0 0 0 0 0 0 0 0 0 0 0 0 0 0 0 0 0 0 0 0 0 0 0 0 0 0 0 0 0 0 0 0 0 0 0 0 0 0 0 0 -0 -0 0
-0 0 0 0 0 0 0 0 0 0 -0 -0 0 0 -0 -0 0 0 0 0 0 0 0 0 0 0 0 0 0 0 0 0 0 0 0 0 0 0 0 0 0 0 0 0 0 0 0 0 0 0 -0 0 0 0
Wind_Speed_500mb
47 53 60 55 39 20 6 31 47 55 52 84 84 53 39 39 46 10 7 12 9 12 4 16 12 29 13 11 6 9 16 21 20 21 21 20 19 1 11 18 18 24 5 15 9 18 5 54 12 13 8 12 13 15
45 53 55 49 24 11 10 27 46 43 60 83 93 49 34 42 42 15 3 13 9 6 6 19 9 10 17 14 12 17 9 25 23 18 12 5 13 1 14 7 12 6 14 5 10 9 11 34 19 12 11 13 12 15
41 48 51 41 21 12 24 30 35 47 60 80 89 47 34 45 39 12 10 7 11 9 10 15 4 11 18 14 11 9 16 13 6 8 11 7 10 7 5 5 5 6 22 9 12 15 27 23 21 16 20 23 18 12
34 41 44 34 18 11 24 29 34 39 73 87 70 47 45 44 46 13 5 10 10 10 12 10 7 7 8 11 6 21 31 16 2 5 14 6 5 9 8 2 9 9 18 14 20 19 33 30 20 11 5 2 1 2
27 32 38 32 14 10 22 28 33 50 73 66 64 50 46 41 33 14 3 8 4 5 16 21 14 4 18 5 6 6 22 19 11 8 4 6 18 11 8 4 13 9 11 6 5 34 10 32 15 3 2 10 10 11
22 26 31 28 21 4 26 32 35 44 63 72 61 50 49 38 25 7 3 9 7 5 9 4 21 13 24 7 8 8 11 9 2 5 6 7 4 6 5 4 7 29 43 45 32 33 41 30 17 13 15 14 16 17
16 18 22 28 20 10 16 36 39 39 49 48 51 60 53 54 23 10 2 9 17 11 9 8 15 20 25 11 12 12 5 4 9 5 5 11 6 6 5 10 29 18 12 33 57 53 35 20 21 19 20 20 19 19
12 12 13 18 21 14 11 36 36 35 45 50 41 46 38 31 24 12 5 7 23 3 8 8 8 19 23 20 12 9 7 4 5 7 5 7 16 7 4 30 28 35 29 42 44 32 27 24 24 21 16 14 14 16
10 7 6 7 15 9 16 39 38 34 47 51 42 39 41 30 20 8 8 13 21 7 10 9 8 11 28 25 20 11 9 8 9 9 9 10 12 7 23 41 49 41 29 47 37 35 31 27 23 18 13 8 7 6
13 10 6 2 2 9 15 27 45 50 40 45 52 13 10 26 25 14 6 3 9 8 10 9 26 12 35 30 11 13 12 4 6 14 16 8 14 40 30 23 24 30 46 39 51 33 28 22 18 14 10 7 6 4
18 15 12 9 6 5 16 35 38 47 68 26 12 12 35 34 27 11 12 15 16 8 14 20 21 12 38 16 12 13 8 7 11 7 13 13 13 21 23 23 30 33 30 27 26 34 32 23 14 9 8 7 6 5
22 19 15 15 14 17 17 45 70 68 25 20 16 31 31 14 12 11 13 12 13 15 24 32 22 26 26 13 14 1 5 6 6 8 9 4 15 39 28 27 32 38 32 36 33 30 26 20 13 10 8 6 5 5
24 22 15 18 19 28 23 51 59 41 34 25 17 16 14 12 6 14 24 15 11 24 30 31 18 18 14 8 11 11 7 9 23 7 8 10 29 29 28 29 30 44 40 41 32 27 24 20 15 11 8 6 6 6
23 22 18 17 24 36 34 65 33 28 7 10 12 6 12 11 13 11 21 21 17 23 39 38 27 13 23 17 7 8 5 5 7 10 12 17 38 36 34 37 44 45 38 34 30 26 22 18 15 12 10 9 8 8
19 20 19 19 32 44 45 49 37 11 2 7 13 11 16 20 29 30 40 37 29 35 39 37 24 29 15 6 5 4 10 10 10 2 16 36 41 40 39 50 51 47 39 31 28 23 19 16 13 13 12 13 13 15
20 18 17 28 35 47 61 50 32 4 6 8 10 11 24 8 18 15 23 25 31 44 42 39 10 6 4 7 16 12 8 11 12 14 36 35 39 37 60 59 50 41 38 30 24 19 18 16 15 15 15 15 13 13
13 14 26 36 44 57 61 39 9 6 6 8 8 11 13 31 16 22 26 27 29 44 17 20 7 10 10 6 12 9 4 17 41 44 45 42 39 56 60 53 49 45 37 28 20 18 19 18 17 16 14 12 9 14
14 35 42 44 47 50 49 28 7 8 10 16 10 12 3 23 31 27 31 28 24 33 30 6 11 12 8 13 16 18 21 23 28 42 38 39 41 53 55 52 46 40 30 23 20 18 18 16 16 15 16 15 14 11
38 45 47 44 40 38 16 13 12 8 23 17 29 18 23 9 9 21 25 26 24 20 3 13 5 10 13 7 18 21 29 32 36 31 38 40 41 53 53 46 41 35 26 22 19 18 18 12 15 19 17 15 11 13
31 37 45 38 40 12 12 11 12 9 6 11 11 17 6 16 19 18 23 27 22 16 9 7 1 19 26 26 19 12 21 28 37 34 29 34 43 49 46 41 39 33 25 19 17 17 15 13 10 12 22 19 18 17
29 40 27 21 12 9 7 3 2 1 6 12 19 20 11 22 13 15 28 25 20 21 12 14 22 11 13 6 15 25 17 30 36 34 35 35 42 46 42 40 35 28 29 23 23 19 16 15 16 11 11 16 16 16
21 20 18 9 8 5 4 6 4 2 7 2 10 23 5 16 18 11 17 13 17 23 3 12 13 20 15 10 9 5 14 17 23 34 44 47 44 46 40 34 30 30 27 27 20 18 20 19 18 14 14 15 19 19
15 11 8 3 3 6 5 6 3 7 3 7 10 10 9 9 8 10 1 9 13 13 4 18 20 16 12 14 16 14 20 23 32 39 43 44 47 40 38 37 32 26 28 25 26 21 21 19 19 17 14 16 12 15
9 1 4 5 2 3 3 4 2 8 5 5 4 8 8 5 13 5 5 3 16 19 15 13 15 15 15 14 12 15 18 16 19 29 26 38 35 27 30 26 25 28 25 23 20 12 17 15 17 16 16 19 19 16
3 2 6 4 3 5 6 6 5 3 5 5 4 5 5 7 5 7 7 2 15 17 22 20 17 18 22 16 19 21 17 24 26 29 20 20 34 37 24 24 21 20 22 20 20 23 29 23 22 24 24 27 29 27
2 5 4 4 8 5 7 7 7 6 4 4 4 5 5 5 6 6 9 16 14 22 23 19 23 19 15 23 18 10 13 30 34 28 28 21 22 23 21 32 28 21 17 19 22 23 26 30 26 25 29 26 28 20
4 7 8 5 4 8 5 3 6 6 5 7 6 9 7 6 9 7 13 15 13 9 10 14 15 20 29 23 23 28 22 14 17 24 22 15 11 10 18 20 22 23 24 21 20 25 23 20 21 27 29 31 31 36
7 2 10 17 10 15 8 10 9 9 8 6 5 10 5 3 7 6 3 6 4 6 11 13 14 22 24 23 34 34 24 16 15 14 15 13 13 11 10 10 12 15 17 19 23 25 22 19 21 25 30 32 32 31
10 7 12 11 9 4 7 8 9 9 7 12 7 6 3 8 8 11 16 9 10 10 13 18 21 20 19 25 27 27 29 19 15 18 19 18 22 19 16 15 12 12 18 22 32 39 34 27 22 24 19 20 21 25
13 15 9 8 7 8 13 14 12 6 15 15 10 4 9 12 8 10 15 15 19 20 19 21 21 24 29 29 27 29 27 20 23 21 27 24 19 20 18 19 18 19 16 18 25 24 22 21 26 31 38 32 28 28
19 23 12 13 12 22 22 17 11 6 9 12 13 7 6 8 13 13 11 9 17 12 16 19 12 18 15 15 15 23 24 20 19 18 12 12 15 19 19 17 21 17 23 21 25 22 21 25 23 22 26 28 30 29
19 16 15 10 10 11 15 19 15 14 20 21 15 15 21 14 10 10 17 17 13 15 13 9 20 16 15 19 18 22 22 21 23 20 16 17 16 16 16 16 17 19 18 21 21 24 25 27 23 25 25 25 26 27
12 9 10 6 8 13 19 19 15 10 18 20 19 20 21 17 9 9 18 20 19 17 13 13 15 18 16 19 21 18 18 18 21 23 22 25 26 22 16 9 15 14 14 17 20 19 19 18 19 19 20 16 14 19
Wind_Direction_500mb
345 346 346 346 346 357 217 184 188 185 188 178 183 185 196 197 191 222 8 279 348 344 351 339 23 21 38 27 343 251 140 201 198 228 231 223 240 284 188 154 168 218 187 274 282 282 202 356 35 18 16 42 27 27
350 351 354 354 354 21 130 168 173 177 180 182 184 189 197 204 182 182 323 264 289 324 79 297 354 41 50 46 353 297 237 179 192 210 239 353 45 351 258 146 334 199 24 35 37 88 106 57 58 66 55 68 64 68
354 356 2 10 25 70 130 145 171 185 182 180 182 195 193 193 183 147 70 325 336 300 261 264 161 73 72 39 276 336 325 3 78 57 68 47 88 355 293 114 210 160 13 93 144 135 124 114 112 111 84 78 72 73
356 1 10 20 46 105 150 152 163 170 176 176 189 194 199 193 181 150 77 329 1 317 259 167 169 159 110 58 303 286 298 325 339 259 109 114 191 204 237 111 275 86 124 119 98 130 128 128 123 115 114 140 154 33
359 4 14 16 30 139 162 171 163 172 175 180 187 192 188 188 196 189 91 255 252 11 356 297 191 156 196 353 254 327 312 302 218 172 161 217 110 223 282 324 109 78 90 63 358 172 143 138 127 233 42 71 60 49
356 3 12 20 10 3 183 181 181 176 185 191 191 197 202 211 233 157 222 272 254 226 295 234 103 138 166 286 270 282 286 348 343 167 166 62 72 292 86 357 39 122 157 152 145 154 135 128 113 110 108 97 83 72
345 359 7 19 23 3 185 182 180 183 185 185 192 204 212 213 175 160 258 211 205 204 272 278 140 155 158 253 225 230 303 3 323 246 265 106 106 226 265 231 89 60 131 131 141 135 134 127 122 126 113 98 87 75
323 347 3 12 28 36 174 178 171 174 178 183 183 190 197 206 205 204 255 244 190 222 272 285 103 137 176 196 224 196 205 188 229 311 177 294 145 209 222 95 95 120 134 135 131 135 133 131 133 128 121 108 83 72
283 300 335 9 23 69 119 168 181 184 179 169 166 178 165 174 174 176 288 167 160 223 303 259 184 151 184 223 206 155 259 187 159 218 252 200 232 219 137 131 123 183 172 146 139 147 149 144 131 126 123 120 90 60
246 245 262 248 51 48 149 150 172 180 173 173 140 99 110 159 149 141 190 183 205 232 242 262 276 140 180 203 148 188 209 161 253 207 218 213 244 121 129 131 141 208 138 150 156 139 144 138 128 106 83 68 65 70
227 224 216 207 200 158 144 150 154 157 144 116 124 158 141 150 150 168 177 197 192 220 217 253 275 140 187 179 177 170 184 228 183 201 197 188 209 159 154 145 150 151 141 156 170 143 134 135 135 124 99 87 83 72
219 217 220 202 206 173 167 166 147 145 150 141 136 128 141 176 185 183 184 220 190 214 192 224 179 182 180 123 42 229 112 266 91 184 229 171 89 138 158 153 134 130 133 136 139 138 124 122 123 123 119 98 82 82
209 204 210 201 202 180 177 171 154 156 149 139 131 156 182 189 212 195 189 176 204 196 173 205 170 174 120 96 97 235 132 249 135 206 222 120 148 145 149 152 150 130 130 126 123 118 117 119 118 122 120 114 102 94
200 199 206 201 188 180 170 162 147 153 94 142 179 201 193 187 206 208 193 183 178 166 174 175 170 164 155 190 175 206 151 173 232 229 190 142 149 148 157 148 127 127 129 126 130 129 129 123 114 110 117 127 122 110
193 196 205 205 181 178 177 174 159 195 289 230 214 191 210 202 190 206 191 150 162 175 166 160 178 164 174 154 197 239 190 216 224 121 119 132 142 153 146 135 135 133 131 141 138 133 130 128 121 116 116 117 119 138
190 199 221 178 182 170 174 174 174 264 277 267 249 214 188 155 159 148 133 156 167 174 188 184 121 67 258 209 184 181 204 222 122 111 132 138 146 143 136 139 138 136 137 137 137 138 135 135 133 129 127 123 104 116
196 209 171 166 167 171 176 185 205 235 262 275 246 213 239 145 217 166 175 162 176 180 175 184 123 186 181 221 177 205 107 72 120 141 141 149 147 140 139 134 137 137 136 135 140 140 136 135 133 138 129 129 112 128
179 160 154 153 156 171 179 188 248 234 246 263 263 228 119 168 209 169 145 164 191 193 177 182 139 206 181 208 210 123 133 105 108 126 134 142 152 145 146 141 141 140 138 147 149 148 143 143 148 147 149 151 129 136
143 145 147 157 160 156 165 203 238 250 227 227 231 192 178 163 174 154 143 176 202 199 127 186 202 214 213 97 69 100 145 135 119 124 137 151 152 152 147 146 146 144 152 152 158 159 156 166 170 153 160 161 164 155
146 146 148 145 163 161 211 224 210 245 159 243 181 151 178 163 152 158 152 172 189 168 206 214 108 70 60 90 121 130 132 135 134 132 145 155 158 156 153 156 154 155 155 156 167 148 149 141 179 173 171 188 183 183
135 152 132 155 225 253 249 269 211 300 253 161 144 154 154 133 133 173 159 177 191 205 177 148 116 137 135 58 103 119 171 140 146 154 159 160 163 158 162 165 164 169 172 178 166 167 176 181 195 202 208 208 201 199
138 138 156 171 246 299 287 50 230 141 87 268 181 114 123 132 119 161 164 203 185 200 192 117 140 140 126 113 117 151 153 112 154 161 158 156 165 163 163 172 180 183 184 167 174 168 178 188 182 182 191 200 199 207
118 136 179 227 337 17 354 340 343 66 98 146 104 126 103 90 122 150 108 189 188 192 96 123 141 143 209 156 158 141 158 169 152 156 168 163 167 172 180 181 180 185 172 179 169 172 175 184 186 196 201 208 199 212
75 93 195 173 206 343 4 52 36 90 167 81 91 93 93 120 170 86 264 91 262 125 212 158 130 133 142 148 137 158 169 197 169 158 172 163 171 164 186 180 184 188 176 165 167 177 183 173 195 194 212 227 221 231
277 62 152 285 206 164 166 131 118 108 101 123 108 91 127 154 191 172 188 22 268 164 165 175 186 161 141 162 184 184 173 159 163 170 167 181 156 193 178 202 188 178 180 199 200 210 215 222 230 238 229 230 239 209
36 182 206 189 143 204 154 164 164 157 141 137 209 114 137 191 199 215 219 176 169 225 176 185 185 169 179 168 172 183 127 158 165 173 167 175 169 183 196 180 180 182 187 210 228 216 210 219 233 231 237 241 241 239
241 181 184 246 177 152 237 231 208 174 182 198 185 176 185 208 214 198 183 197 222 189 155 186 190 182 161 165 173 180 175 162 162 209 183 190 168 174 169 171 179 185 193 202 199 221 241 233 236 237 240 246 245 239
252 235 179 175 195 193 196 188 191 211 210 197 212 195 212 231 44 47 91 145 73 131 177 202 219 184 183 179 178 171 174 176 178 137 151 163 177 194 160 179 205 212 203 213 211 220 240 243 244 246 253 247 246 244
226 204 159 181 164 177 214 218 210 206 178 183 218 220 128 79 149 179 176 161 212 208 199 200 197 190 170 173 162 167 169 177 191 196 203 214 200 202 210 214 228 239 249 249 247 244 257 253 251 247 244 245 240 246
202 185 168 167 175 209 236 211 235 197 187 218 231 134 140 132 157 165 182 219 199 199 196 203 180 188 204 190 188 177 176 197 206 219 222 225 223 215 231 220 237 236 238 244 252 252 242 262 275 262 250 249 254 258
171 183 179 184 220 219 224 227 255 244 251 220 220 211 182 164 179 196 189 192 189 181 182 184 181 178 193 192 188 182 182 190 204 217 213 200 212 221 236 248 244 237 242 243 243 240 258 266 247 255 254 245 239 242
172 189 184 219 217 198 165 181 213 215 235 247 220 213 172 173 196 214 201 195 197 190 186 179 185 176 185 189 191 206 206 206 203 203 218 223 237 241 224 230 236 237 233 244 255 258 255 255 251 248 249 249 242 229
136 147 183 218 184 181 181 183 196 207 203 211 211 216 219 210 213 212 191 200 202 199 186 192 182 170 176 178 187 187 176 192 195 215 227 231 223 218 209 231 224 218 233 239 252 250 254 255 248 248 246 244 230 215
Wind_Speed_850mb
47 53 60 55 39 20 6 31 47 55 52 84 84 53 39 39 46 10 7 12 9 12 4 16 12 29 13 11 6 9 16 21 20 21 21 20 19 1 11 18 18 24 5 15 9 18 5 54 12 13 8 12 13 15
45 53 55 49 24 11 10 27 46 43 60 83 93 49 34 42 42 15 3 13 9 6 6 19 9 10 17 14 12 17 9 25 23 18 12 5 13 1 14 7 12 6 14 5 10 9 11 34 19 12 11 13 12 15
41 48 51 41 21 12 24 30 35 47 60 80 89 47 34 45 39 12 10 7 11 9 10 15 4 11 18 14 11 9 16 13 6 8 11 7 10 7 5 5 5 6 22 9 12 15 27 23 21 16 20 23 18 12
34 41 44 34 18 11 24 29 34 39 73 87 70 47 45 44 46 13 5 10 10 10 12 10 7 7 8 11 6 21 31 16 2 5 14 6 5 9 8 2 9 9 18 14 20 19 33 30 20 11 5 2 1 2
27 32 38 32 14 10 22 28 33 50 73 66 64 50 46 41 33 14 3 8 4 5 16 21 14 4 18 5 6 6 22 19 11 8 4 6 18 11 8 4 13 9 11 6 5 34 10 32 15 3 2 10 10 11
22 26 31 28 21 4 26 32 35 44 63 72 61 50 49 38 25 7 3 9 7 5 9 4 21 13 24 7 8 8 11 9 2 5 6 7 4 6 5 4 7 29 43 45 32 33 41 30 17 13 15 14 16 17
16 18 22 28 20 10 16 36 39 39 49 48 51 60 53 54 23 10 2 9 17 11 9 8 15 20 25 11 12 12 5 4 9 5 5 11 6 6 5 10 29 18 12 33 57 53 35 20 21 19 20 20 19 19
12 12 13 18 21 14 11 36 36 35 45 50 41 46 38 31 24 12 5 7 23 3 8 8 8 19 23 20 12 9 7 4 5 7 5 7 16 7 4 30 28 35 29 42 44 32 27 24 24 21 16 14 14 16
10 7 6 7 15 9 16 39 38 34 47 51 42 39 41 30 20 8 8 13 21 7 10 9 8 11 28 25 20 11 9 8 9 9 9 10 12 7 23 41 49 41 29 47 37 35 31 27 23 18 13 8 7 6
13 10 6 2 2 9 15 27 45 50 40 45 52 13 10 26 25 14 6 3 9 8 10 9 26 12 35 30 11 13 12 4 6 14 16 8 14 40 30 23 24 30 46 39 51 33 28 22 18 14 10 7 6 4
18 15 12 9 6 5 16 35 38 47 68 26 12 12 35 34 27 11 12 15 16 8 14 20 21 12 38 16 12 13 8 7 11 7 13 13 13 21 23 23 30 33 30 27 26 34 32 23 14 9 8 7 6 5
22 19 15 15 14 17 17 45 70 68 25 20 16 31 31 14 12 11 13 12 13 15 24 32 22 26 26 13 14 1 5 6 6 8 9 4 15 39 28 27 32 38 32 36 33 30 26 20 13 10 8 6 5 5
24 22 15 18 19 28 23 51 59 41 34 25 17 16 14 12 6 14 24 15 11 24 30 31 18 18 14 8 11 11 7 9 23 7 8 10 29 29 28 29 30 44 40 41 32 27 24 20 15 11 8 6 6 6
23 22 18 17 24 36 34 65 33 28 7 10 12 6 12 11 13 11 21 21 17 23 39 38 27 13 23 17 7 8 5 5 7 10 12 17 38 36 34 37 44 45 38 34 30 26 22 18 15 12 10 9 8 8
19 20 19 19 32 44 45 49 37 11 2 7 13 11 16 20 29 30 40 37 29 35 39 37 24 29 15 6 5 4 10 10 10 2 16 36 41 40 39 50 51 47 39 31 28 23 19 16 13 13 12 13 13 15
20 18 17 28 35 47 61 50 32 4 6 8 10 11 24 8 18 15 23 25 31 44 42 39 10 6 4 7 16 12 8 11 12 14 36 35 39 37 60 59 50 41 38 30 24 19 18 16 15 15 15 15 13 13
13 14 26 36 44 57 61 39 9 6 6 8 8 11 13 31 16 22 26 27 29 44 17 20 7 10 10 6 12 9 4 17 41 44 45 42 39 56 60 53 49 45 37 28 20 18 19 18 17 16 14 12 9 14
14 35 42 44 47 50 49 28 7 8 10 16 10 12 3 23 31 27 31 28 24 33 30 6 11 12 8 13 16 18 21 23 28 42 38 39 41 53 55 52 46 40 30 23 20 18 18 16 16 15 16 15 14 11
38 45 47 44 40 38 16 13 12 8 23 17 29 18 23 9 9 21 25 26 24 20 3 13 5 10 13 7 18 21 29 32 36 31 38 40 41 53 53 46 41 35 26 22 19 18 18 12 15 19 17 15 11 13
31 37 45 38 40 12 12 11 12 9 6 11 11 17 6 16 19 18 23 27 22 16 9 7 1 19 26 26 19 12 21 28 37 34 29 34 43 49 46 41 39 33 25 19 17 17 15 13 10 12 22 19 18 17
29 40 27 21 12 9 7 3 2 1 6 12 19 20 11 22 13 15 28 25 20 21 12 14 22 11 13 6 15 25 17 30 36 34 35 35 42 46 42 40 35 28 29 23 23 19 16 15 16 11 11 16 16 16
21 20 18 9 8 5 4 6 4 2 7 2 10 23 5 16 18 11 17 13 17 23 3 12 13 20 15 10 9 5 14 17 23 34 44 47 44 46 40 34 30 30 27 27 20 18 20 19 18 14 14 15 19 19
15 11 8 3 3 6 5 6 3 7 3 7 10 10 9 9 8 10 1 9 13 13 4 18 20 16 12 14 16 14 20 23 32 39 43 44 47 40 38 37 32 26 28 25 26 21 21 19 19 17 14 16 12 15
9 1 4 5 2 3 3 4 2 8 5 5 4 8 8 5 13 5 5 3 16 19 15 13 15 15 15 14 12 15 18 16 19 29 26 38 35 27 30 26 25 28 25 23 20 12 17 15 17 16 16 19 19 16
3 2 6 4 3 5 6 6 5 3 5 5 4 5 5 7 5 7 7 2 15 17 22 20 17 18 22 16 19 21 17 24 26 29 20 20 34 37 24 24 21 20 22 20 20 23 29 23 22 24 24 27 29 27
2 5 4 4 8 5 7 7 7 6 4 4 4 5 5 5 6 6 9 16 14 22 23 19 23 19 15 23 18 10 13 30 34 28 28 21 22 23 21 32 28 21 17 19 22 23 26 30 26 25 29 26 28 20
4 7 8 5 4 8 5 3 6 6 5 7 6 9 7 6 9 7 13 15 13 9 10 14 15 20 29 23 23 28 22 14 17 24 22 15 11 10 18 20 22 23 24 21 20 25 23 20 21 27 29 31 31 36
7 2 10 17 10 15 8 10 9 9 8 6 5 10 5 3 7 6 3 6 4 6 11 13 14 22 24 23 34 34 24 16 15 14 15 13 13 11 10 10 12 15 17 19 23 25 22 19 21 25 30 32 32 31
10 7 12 11 9 4 7 8 9 9 7 12 7 6 3 8 8 11 16 9 10 10 13 18 21 20 19 25 27 27 29 19 15 18 19 18 22 19 16 15 12 12 18 22 32 39 34 27 22 24 19 20 21 25
13 15 9 8 7 8 13 14 12 6 15 15 10 4 9 12 8 10 15 15 19 20 19 21 21 24 29 29 27 29 27 20 23 21 27 24 19 20 18 19 18 19 16 18 25 24 22 21 26 31 38 32 28 28
19 23 12 13 12 22 22 17 11 6 9 12 13 7 6 8 13 13 11 9 17 12 16 19 12 18 15 15 15 23 24 20 19 18 12 12 15 19 19 17 21 17 23 21 25 22 21 25 23 22 26 28 30 29
19 16 15 10 10 11 15 19 15 14 20 21 15 15 21 14 10 10 17 17 13 15 13 9 20 16 15 19 18 22 22 21 23 20 16 17 16 16 16 16 17 19 18 21 21 24 25 27 23 25 25 25 26 27
12 9 10 6 8 13 19 19 15 10 18 20 19 20 21 17 9 9 18 20 19 17 13 13 15 18 16 19 21 18 18 18 21 23 22 25 26 22 16 9 15 14 14 17 20 19 19 18 19 19 20 16 14 19
Wind_Direction_850mb
345 346 346 346 346 357 217 184 188 185 188 178 183 185 196 197 191 222 8 279 348 344 351 339 23 21 38 27 343 251 140 201 198 228 231 223 240 284 188 154 168 218 187 274 282 282 202 356 35 18 16 42 27 27
350 351 354 354 354 21 130 168 173 177 180 182 184 189 197 204 182 182 323 264 289 324 79 297 354 41 50 46 353 297 237 179 192 210 239 353 45 351 258 146 334 199 24 35 37 88 106 57 58 66 55 68 64 68
354 356 2 10 25 70 130 145 171 185 182 180 182 195 193 193 183 147 70 325 336 300 261 264 161 73 72 39 276 336 325 3 78 57 68 47 88 355 293 114 210 160 13 93 144 135 124 114 112 111 84 78 72 73
356 1 10 20 46 105 150 152 163 170 176 176 189 194 199 193 181 150 77 329 1 317 259 167 169 159 110 58 303 286 298 325 339 259 109 114 191 204 237 111 275 86 124 119 98 130 128 128 123 115 114 140 154 33
359 4 14 16 30 139 162 171 163 172 175 180 187 192 188 188 196 189 91 255 252 11 356 297 191 156 196 353 254 327 312 302 218 172 161 217 110 223 282 324 109 78 90 63 358 172 143 138 127 233 42 71 60 49
356 3 12 20 10 3 183 181 181 176 185 191 191 197 202 211 233 157 222 272 254 226 295 234 103 138 166 286 270 282 286 348 343 167 166 62 72 292 86 357 39 122 157 152 145 154 135 128 113 110 108 97 83 72
345 359 7 19 23 3 185 182 180 183 185 185 192 204 212 213 175 160 258 211 205 204 272 278 140 155 158 253 225 230 303 3 323 246 265 106 106 226 265 231 89 60 131 131 141 135 134 127 122 126 113 98 87 75
323 347 3 12 28 36 174 178 171 174 178 183 183 190 197 206 205 204 255 244 190 222 272 285 103 137 176 196 224 196 205 188 229 311 177 294 145 209 222 95 95 120 134 135 131 135 133 131 133 128 121 108 83 72
283 300 335 9 23 69 119 168 181 184 179 169 166 178 165 174 174 176 288 167 160 223 303 259 184 151 184 223 206 155 259 187 159 218 252 200 232 219 137 131 123 183 172 146 139 147 149 144 131 126 123 120 90 60
246 245 262 248 51 48 149 150 172 180 173 173 140 99 110 159 149 141 190 183 205 232 242 262 276 140 180 203 148 188 209 161 253 207 218 213 244 121 129 131 141 208 138 150 156 139 144 138 128 106 83 68 65 70
227 224 216 207 200 158 144 150 154 157 144 116 124 158 141 150 150 168 177 197 192 220 217 253 275 140 187 179 177 170 184 228 183 201 197 188 209 159 154 145 150 151 141 156 170 143 134 135 135 124 99 87 83 72
219 217 220 202 206 173 167 166 147 145 150 141 136 128 141 176 185 183 184 220 190 214 192 224 179 182 180 123 42 229 112 266 91 184 229 171 89 138 158 153 134 130 133 136 139 138 124 122 123 123 119 98 82 82
209 204 210 201 202 180 177 171 154 156 149 139 131 156 182 189 212 195 189 176 204 196 173 205 170 174 120 96 97 235 132 249 135 206 222 120 148 145 149 152 150 130 130 126 123 118 117 119 118 122 120 114 102 94
200 199 206 201 188 180 170 162 147 153 94 142 179 201 193 187 206 208 193 183 178 166 174 175 170 164 155 190 175 206 151 173 232 229 190 142 149 148 157 148 127 127 129 126 130 129 129 123 114 110 117 127 122 110
193 196 205 205 181 178 177 174 159 195 289 230 214 191 210 202 190 206 191 150 162 175 166 160 178 164 174 154 197 239 190 216 224 121 119 132 142 153 146 135 135 133 131 141 138 133 130 128 121 116 116 117 119 138
190 199 221 178 182 170 174 174 174 264 277 267 249 214 188 155 159 148 133 156 167 174 188 184 121 67 258 209 184 181 204 222 122 111 132 138 146 143 136 139 138 136 137 137 137 138 135 135 133 129 127 123 104 116
196 209 171 166 167 171 176 185 205 235 262 275 246 213 239 145 217 166 175 162 176 180 175 184 123 186 181 221 177 205 107 72 120 141 141 149 147 140 139 134 137 137 136 135 140 140 136 135 133 138 129 129 112 128
179 160 154 153 156 171 179 188 248 234 246 263 263 228 119 168 209 169 145 164 191 193 177 182 139 206 181 208 210 123 133 105 108 126 134 142 152 145 146 141 141 140 138 147 149 148 143 143 148 147 149 151 129 136
143 145 147 157 160 156 165 203 238 250 227 227 231 192 178 163 174 154 143 176 202 199 127 186 202 214 213 97 69 100 145 135 119 124 137 151 152 152 147 146 146 144 152 152 158 159 156 166 170 153 160 161 164 155
146 146 148 145 163 161 211 224 210 245 159 243 181 151 178 163 152 158 152 172 189 168 206 214 108 70 60 90 121 130 132 135 134 132 145 155 158 156 153 156 154 155 155 156 167 148 149 141 179 173 171 188 183 183
135 152 132 155 225 253 249 269 211 300 253 161 144 154 154 133 133 173 159 177 191 205 177 148 116 137 135 58 103 119 171 140 146 154 159 160 163 158 162 165 164 169 172 178 166 167 176 181 195 202 208 208 201 199
138 138 156 171 246 299 287 50 230 141 87 268 181 114 123 132 119 161 164 203 185 200 192 117 140 140 126 113 117 151 153 112 154 161 158 156 165 163 163 172 180 183 184 167 174 168 178 188 182 182 191 200 199 207
118 136 179 227 337 17 354 340 343 66 98 146 104 126 103 90 122 150 108 189 188 192 96 123 141 143 209 156 158 141 158 169 152 156 168 163 167 172 180 181 180 185 172 179 169 172 175 184 186 196 201 208 199 212
75 93 195 173 206 343 4 52 36 90 167 81 91 93 93 120 170 86 264 91 262 125 212 158 130 133 142 148 137 158 169 197 169 158 172 163 171 164 186 180 184 188 176 165 167 177 183 173 195 194 212 227 221 231
277 62 152 285 206 164 166 131 118 108 101 123 108 91 127 154 191 172 188 22 268 164 165 175 186 161 141 162 184 184 173 159 163 170 167 181 156 193 178 202 188 178 180 199 200 210 215 222 230 238 229 230 239 209
36 182 206 189 143 204 154 164 164 157 141 137 209 114 137 191 199 215 219 176 169 225 176 185 185 169 179 168 172 183 127 158 165 173 167 175 169 183 196 180 180 182 187 210 228 216 210 219 233 231 237 241 241 239
241 181 184 246 177 152 237 231 208 174 182 198 185 176 185 208 214 198 183 197 222 189 155 186 190 182 161 165 173 180 175 162 162 209 183 190 168 174 169 171 179 185 193 202 199 221 241 233 236 237 240 246 245 239
252 235 179 175 195 193 196 188 191 211 210 197 212 195 212 231 44 47 91 145 73 131 177 202 219 184 183 179 178 171 174 176 178 137 151 163 177 194 160 179 205 212 203 213 211 220 240 243 244 246 253 247 246 244
226 204 159 181 164 177 214 218 210 206 178 183 218 220 128 79 149 179 176 161 212 208 199 200 197 190 170 173 162 167 169 177 191 196 203 214 200 202 210 214 228 239 249 249 247 244 257 253 251 247 244 245 240 246
202 185 168 167 175 209 236 211 235 197 187 218 231 134 140 132 157 165 182 219 199 199 196 203 180 188 204 190 188 177 176 197 206 219 222 225 223 215 231 220 237 236 238 244 252 252 242 262 275 262 250 249 254 258
171 183 179 184 220 219 224 227 255 244 251 220 220 211 182 164 179 196 189 192 189 181 182 184 181 178 193 192 188 182 182 190 204 217 213 200 212 221 236 248 244 237 242 243 243 240 258 266 247 255 254 245 239 242
172 189 184 219 217 198 165 181 213 215 235 247 220 213 172 173 196 214 201 195 197 190 186 179 185 176 185 189 191 206 206 206 203 203 218 223 237 241 224 230 236 237 233 244 255 258 255 255 251 248 249 249 242 229
136 147 183 218 184 181 181 183 196 207 203 211 211 216 219 210 213 212 191 200 202 199 186 192 182 170 176 178 187 187 176 192 195 215 227 231 223 218 209 231 224 218 233 239 252 250 254 255 248 248 246 244 230 215